Time,TemperatureF,DewpointF,PressureIn,WindDirection,WindDirectionDegrees,WindSpeedMPH,WindSpeedGustMPH,Humidity,HourlyPrecipIn,Conditions,Clouds,dailyrainin,SoftwareType,DateUTC
2013-05-31 00:02:00,64.0,57.0,30.27,WSW,243,3.0,10.0,77,0.00,,,0.00,,2013-05-31 04:02:00,
2013-05-31 00:12:00,64.0,57.0,30.27,WSW,243,3.0,10.0,77,0.00,,,0.00,,2013-05-31 04:12:00,
2013-05-31 00:22:00,64.0,57.0,30.27,West,265,2.0,10.0,77,0.00,,,0.00,,2013-05-31 04:22:00,
2013-05-31 00:33:00,64.0,57.0,30.27,SW,226,3.0,13.0,77,0.00,,,0.00,,2013-05-31 04:33:00,
2013-05-31 00:42:00,64.0,57.0,30.27,SW,226,3.0,13.0,77,0.00,,,0.00,,2013-05-31 04:42:00,
2013-05-31 00:53:00,64.0,57.0,30.27,SSW,193,3.0,10.0,78,0.00,,,0.00,,2013-05-31 04:53:00,
2013-05-31 01:02:00,63.0,56.0,30.27,West,265,3.0,10.0,79,0.00,,,0.00,,2013-05-31 05:02:00,
2013-05-31 01:12:00,64.0,57.0,30.27,West,267,5.0,15.0,77,0.00,,,0.00,,2013-05-31 05:12:00,
2013-05-31 01:22:00,64.0,57.0,30.27,West,267,5.0,15.0,77,0.00,,,0.00,,2013-05-31 05:22:00,
2013-05-31 01:32:00,64.0,57.0,30.27,West,266,5.0,11.0,77,0.00,,,0.00,,2013-05-31 05:32:00,
2013-05-31 01:42:00,64.0,57.0,30.27,West,266,5.0,11.0,77,0.00,,,0.00,,2013-05-31 05:42:00,
2013-05-31 01:52:00,64.0,57.0,30.27,SW,230,3.0,12.0,77,0.00,,,0.00,,2013-05-31 05:52:00,
2013-05-31 02:02:00,63.0,56.0,30.27,West,259,4.0,10.0,77,0.00,,,0.00,,2013-05-31 06:02:00,
2013-05-31 02:12:00,63.0,56.0,30.27,West,259,4.0,10.0,77,0.00,,,0.00,,2013-05-31 06:12:00,
2013-05-31 02:22:00,64.0,56.0,30.27,WSW,256,3.0,10.0,75,0.00,,,0.00,,2013-05-31 06:22:00,
2013-05-31 02:32:00,64.0,56.0,30.27,West,272,4.0,10.0,75,0.00,,,0.00,,2013-05-31 06:32:00,
2013-05-31 02:42:00,63.0,55.0,30.27,WSW,243,2.0,11.0,76,0.00,,,0.00,,2013-05-31 06:42:00,
2013-05-31 02:51:00,63.0,55.0,30.27,WSW,243,2.0,11.0,76,0.00,,,0.00,,2013-05-31 06:51:00,
2013-05-31 03:02:00,63.0,56.0,30.27,WSW,240,2.0,7.0,77,0.00,,,0.00,,2013-05-31 07:02:00,
2013-05-31 03:11:00,63.0,56.0,30.27,WSW,243,2.0,8.0,78,0.00,,,0.00,,2013-05-31 07:11:00,
2013-05-31 03:21:00,63.0,56.0,30.27,WSW,243,2.0,8.0,78,0.00,,,0.00,,2013-05-31 07:21:00,
2013-05-31 03:32:00,63.0,56.0,30.27,SW,222,5.0,14.0,78,0.00,,,0.00,,2013-05-31 07:32:00,
2013-05-31 03:42:00,63.0,56.0,30.27,SW,222,5.0,14.0,78,0.00,,,0.00,,2013-05-31 07:42:00,
2013-05-31 03:52:00,64.0,57.0,30.26,SW,225,6.0,18.0,77,0.00,,,0.00,,2013-05-31 07:52:00,
2013-05-31 04:02:00,63.0,56.0,30.27,SW,236,5.0,17.0,79,0.00,,,0.00,,2013-05-31 08:02:00,
2013-05-31 04:11:00,63.0,56.0,30.27,SW,236,5.0,17.0,79,0.00,,,0.00,,2013-05-31 08:11:00,
2013-05-31 04:22:00,63.0,57.0,30.27,SW,236,4.0,11.0,81,0.00,,,0.00,,2013-05-31 08:22:00,
2013-05-31 04:32:00,62.0,56.0,30.26,SW,233,5.0,12.0,82,0.00,,,0.00,,2013-05-31 08:32:00,
2013-05-31 04:42:00,62.0,56.0,30.26,SW,233,5.0,12.0,82,0.00,,,0.00,,2013-05-31 08:42:00,
2013-05-31 04:51:00,62.0,56.0,30.26,WSW,243,2.0,15.0,82,0.00,,,0.00,,2013-05-31 08:51:00,
2013-05-31 05:01:00,63.0,57.0,30.26,WSW,238,2.0,15.0,82,0.00,,,0.00,,2013-05-31 09:01:00,
2013-05-31 05:11:00,63.0,57.0,30.26,WSW,238,2.0,15.0,82,0.00,,,0.00,,2013-05-31 09:11:00,
2013-05-31 05:21:00,63.0,57.0,30.26,SW,235,3.0,11.0,82,0.00,,,0.00,,2013-05-31 09:21:00,
2013-05-31 05:32:00,63.0,57.0,30.26,WSW,249,3.0,10.0,81,0.00,,,0.00,,2013-05-31 09:32:00,
2013-05-31 05:43:00,63.0,57.0,30.26,WSW,249,3.0,10.0,81,0.00,,,0.00,,2013-05-31 09:43:00,
2013-05-31 05:53:00,63.0,57.0,30.26,WSW,258,1.0,10.0,81,0.00,,,0.00,,2013-05-31 09:53:00,
2013-05-31 06:02:00,63.0,57.0,30.26,SSW,208,2.0,11.0,82,0.00,,,0.00,,2013-05-31 10:02:00,
2013-05-31 06:12:00,63.0,57.0,30.26,WSW,254,4.0,12.0,81,0.00,,,0.00,,2013-05-31 10:12:00,
2013-05-31 06:22:00,63.0,57.0,30.26,WSW,254,4.0,12.0,81,0.00,,,0.00,,2013-05-31 10:22:00,
2013-05-31 06:33:00,63.0,57.0,30.26,SW,236,3.0,11.0,81,0.00,,,0.00,,2013-05-31 10:33:00,
2013-05-31 06:42:00,63.0,57.0,30.26,SW,236,3.0,11.0,81,0.00,,,0.00,,2013-05-31 10:42:00,
2013-05-31 06:52:00,63.0,57.0,30.26,WSW,257,4.0,11.0,82,0.00,,,0.00,,2013-05-31 10:52:00,
2013-05-31 07:02:00,63.0,57.0,30.25,SSW,199,3.0,12.0,81,0.00,,,0.00,,2013-05-31 11:02:00,
2013-05-31 07:12:00,63.0,57.0,30.25,SSW,199,3.0,12.0,81,0.00,,,0.00,,2013-05-31 11:12:00,
2013-05-31 07:22:00,63.0,57.0,30.25,WSW,253,2.0,11.0,81,0.00,,,0.00,,2013-05-31 11:22:00,
2013-05-31 07:32:00,63.0,57.0,30.26,SSW,211,1.0,6.0,82,0.00,,,0.00,,2013-05-31 11:32:00,
2013-05-31 07:42:00,63.0,57.0,30.26,SSW,211,1.0,6.0,82,0.00,,,0.00,,2013-05-31 11:42:00,
2013-05-31 07:52:00,63.0,57.0,30.26,WSW,244,1.0,10.0,81,0.00,,,0.00,,2013-05-31 11:52:00,
2013-05-31 08:01:00,64.0,58.0,30.26,SSW,213,3.0,11.0,81,0.00,,,0.00,,2013-05-31 12:01:00,
2013-05-31 08:11:00,64.0,58.0,30.26,SSW,213,3.0,11.0,81,0.00,,,0.00,,2013-05-31 12:11:00,
2013-05-31 08:22:00,64.0,57.0,30.26,SW,234,2.0,7.0,79,0.00,,,0.00,,2013-05-31 12:22:00,
2013-05-31 08:32:00,65.0,58.0,30.27,West,272,1.0,7.0,78,0.00,,,0.00,,2013-05-31 12:32:00,
2013-05-31 08:42:00,65.0,58.0,30.27,West,272,1.0,7.0,78,0.00,,,0.00,,2013-05-31 12:42:00,
2013-05-31 08:52:00,66.0,59.0,30.27,SW,230,3.0,9.0,77,0.00,,,0.00,,2013-05-31 12:52:00,
2013-05-31 09:01:00,66.0,58.0,30.27,WSW,240,3.0,7.0,75,0.00,,,0.00,,2013-05-31 13:01:00,
2013-05-31 09:11:00,66.0,58.0,30.27,WSW,240,3.0,7.0,75,0.00,,,0.00,,2013-05-31 13:11:00,
2013-05-31 09:21:00,67.0,59.0,30.27,West,271,2.0,10.0,76,0.00,,,0.00,,2013-05-31 13:21:00,
2013-05-31 09:32:00,68.0,59.0,30.27,WSW,239,1.0,7.0,73,0.00,,,0.00,,2013-05-31 13:32:00,
2013-05-31 09:42:00,68.0,59.0,30.27,WSW,239,1.0,7.0,73,0.00,,,0.00,,2013-05-31 13:42:00,
2013-05-31 09:52:00,68.0,59.0,30.27,West,281,3.0,12.0,73,0.00,,,0.00,,2013-05-31 13:52:00,
2013-05-31 10:02:00,69.0,60.0,30.27,WSW,241,2.0,8.0,73,0.00,,,0.00,,2013-05-31 14:02:00,
2013-05-31 10:11:00,69.0,60.0,30.27,WSW,241,2.0,8.0,73,0.00,,,0.00,,2013-05-31 14:11:00,
2013-05-31 10:21:00,70.0,60.0,30.27,West,265,3.0,9.0,70,0.00,,,0.00,,2013-05-31 14:21:00,
2013-05-31 10:32:00,70.0,59.0,30.27,WNW,283,5.0,11.0,68,0.00,,,0.00,,2013-05-31 14:32:00,
2013-05-31 10:42:00,70.0,59.0,30.27,WNW,283,5.0,11.0,68,0.00,,,0.00,,2013-05-31 14:42:00,
2013-05-31 10:52:00,70.0,59.0,30.27,WNW,294,4.0,11.0,69,0.00,,,0.00,,2013-05-31 14:52:00,
2013-05-31 11:01:00,72.0,61.0,30.27,West,259,4.0,8.0,69,0.00,,,0.00,,2013-05-31 15:01:00,
2013-05-31 11:11:00,72.0,61.0,30.27,West,259,4.0,8.0,69,0.00,,,0.00,,2013-05-31 15:11:00,
2013-05-31 11:21:00,72.0,61.0,30.27,West,276,3.0,7.0,69,0.00,,,0.00,,2013-05-31 15:21:00,
2013-05-31 11:33:00,73.0,61.0,30.27,West,266,4.0,8.0,67,0.00,,,0.00,,2013-05-31 15:33:00,
2013-05-31 11:43:00,73.0,61.0,30.27,West,266,4.0,8.0,67,0.00,,,0.00,,2013-05-31 15:43:00,
2013-05-31 11:53:00,72.0,59.0,30.28,WNW,297,4.0,8.0,64,0.00,,,0.00,,2013-05-31 15:53:00,
2013-05-31 12:03:00,73.0,62.0,30.27,West,271,1.0,6.0,69,0.00,,,0.00,,2013-05-31 16:03:00,
2013-05-31 12:12:00,72.0,60.0,30.27,North,351,2.0,8.0,66,0.00,,,0.00,,2013-05-31 16:12:00,
2013-05-31 12:22:00,72.0,60.0,30.27,North,351,2.0,8.0,66,0.00,,,0.00,,2013-05-31 16:22:00,
2013-05-31 12:33:00,75.0,61.0,30.27,West,272,3.0,7.0,61,0.00,,,0.00,,2013-05-31 16:33:00,
2013-05-31 12:42:00,75.0,61.0,30.27,West,272,3.0,7.0,61,0.00,,,0.00,,2013-05-31 16:42:00,
2013-05-31 12:52:00,76.0,62.0,30.26,West,266,2.0,9.0,61,0.00,,,0.00,,2013-05-31 16:52:00,
2013-05-31 13:02:00,77.0,60.0,30.26,WSW,247,2.0,5.0,55,0.00,,,0.00,,2013-05-31 17:02:00,
2013-05-31 13:12:00,77.0,60.0,30.26,WSW,247,2.0,5.0,55,0.00,,,0.00,,2013-05-31 17:12:00,
2013-05-31 13:22:00,78.0,61.0,30.25,West,271,2.0,6.0,56,0.00,,,0.00,,2013-05-31 17:22:00,
2013-05-31 13:32:00,79.0,61.0,30.25,West,274,2.0,9.0,54,0.00,,,0.00,,2013-05-31 17:32:00,
2013-05-31 13:42:00,79.0,61.0,30.25,West,274,2.0,9.0,54,0.00,,,0.00,,2013-05-31 17:42:00,
2013-05-31 13:52:00,77.0,60.0,30.24,NW,315,1.0,5.0,56,0.00,,,0.00,,2013-05-31 17:52:00,
2013-05-31 14:02:00,79.0,60.0,30.24,WNW,295,1.0,8.0,52,0.00,,,0.00,,2013-05-31 18:02:00,
2013-05-31 14:12:00,79.0,60.0,30.24,WNW,295,1.0,8.0,52,0.00,,,0.00,,2013-05-31 18:12:00,
2013-05-31 14:22:00,77.0,60.0,30.24,WNW,282,1.0,7.0,55,0.00,,,0.00,,2013-05-31 18:22:00,
2013-05-31 14:32:00,78.0,58.0,30.23,SW,220,3.0,8.0,51,0.00,,,0.00,,2013-05-31 18:32:00,
2013-05-31 14:42:00,78.0,58.0,30.23,SW,220,3.0,8.0,51,0.00,,,0.00,,2013-05-31 18:42:00,
2013-05-31 14:52:00,77.0,61.0,30.23,West,265,1.0,8.0,57,0.00,,,0.00,,2013-05-31 18:52:00,
2013-05-31 15:02:00,77.0,61.0,30.22,West,273,3.0,10.0,58,0.00,,,0.00,,2013-05-31 19:02:00,
2013-05-31 15:11:00,77.0,61.0,30.22,West,273,3.0,10.0,58,0.00,,,0.00,,2013-05-31 19:11:00,
2013-05-31 15:22:00,78.0,60.0,30.22,SSW,206,4.0,10.0,54,0.00,,,0.00,,2013-05-31 19:22:00,
2013-05-31 15:32:00,79.0,59.0,30.21,West,271,4.0,9.0,50,0.00,,,0.00,,2013-05-31 19:32:00,
2013-05-31 15:42:00,77.0,60.0,30.21,West,279,3.0,8.0,56,0.00,,,0.00,,2013-05-31 19:42:00,
2013-05-31 15:52:00,77.0,60.0,30.21,West,279,3.0,8.0,56,0.00,,,0.00,,2013-05-31 19:52:00,
2013-05-31 16:02:00,77.0,60.0,30.21,WNW,284,3.0,9.0,56,0.00,,,0.00,,2013-05-31 20:02:00,
2013-05-31 16:11:00,77.0,60.0,30.21,WNW,284,3.0,9.0,56,0.00,,,0.00,,2013-05-31 20:11:00,
2013-05-31 16:22:00,77.0,61.0,30.20,WNW,291,2.0,8.0,58,0.00,,,0.00,,2013-05-31 20:22:00,
2013-05-31 16:32:00,77.0,61.0,30.20,West,273,3.0,9.0,57,0.00,,,0.00,,2013-05-31 20:32:00,
2013-05-31 16:42:00,77.0,61.0,30.20,West,273,3.0,9.0,57,0.00,,,0.00,,2013-05-31 20:42:00,
2013-05-31 16:52:00,77.0,61.0,30.20,West,275,3.0,7.0,57,0.00,,,0.00,,2013-05-31 20:52:00,
2013-05-31 17:01:00,76.0,60.0,30.19,West,270,3.0,7.0,58,0.00,,,0.00,,2013-05-31 21:01:00,
2013-05-31 17:11:00,76.0,60.0,30.19,West,270,3.0,7.0,58,0.00,,,0.00,,2013-05-31 21:11:00,
2013-05-31 17:22:00,77.0,62.0,30.19,West,280,4.0,9.0,60,0.00,,,0.00,,2013-05-31 21:22:00,
2013-05-31 17:33:00,76.0,61.0,30.19,WSW,240,3.0,7.0,60,0.00,,,0.00,,2013-05-31 21:33:00,
2013-05-31 17:42:00,76.0,60.0,30.18,West,281,3.0,9.0,58,0.00,,,0.00,,2013-05-31 21:42:00,
2013-05-31 17:53:00,76.0,60.0,30.18,West,281,3.0,9.0,58,0.00,,,0.00,,2013-05-31 21:53:00,
2013-05-31 18:03:00,76.0,60.0,30.18,West,278,2.0,6.0,58,0.00,,,0.00,,2013-05-31 22:03:00,
2013-05-31 18:12:00,76.0,60.0,30.18,West,278,2.0,6.0,58,0.00,,,0.00,,2013-05-31 22:12:00,
2013-05-31 18:22:00,77.0,61.0,30.18,WNW,292,3.0,9.0,57,0.00,,,0.00,,2013-05-31 22:22:00,
2013-05-31 18:33:00,76.0,59.0,30.18,WNW,286,4.0,9.0,56,0.00,,,0.00,,2013-05-31 22:33:00,
2013-05-31 18:42:00,76.0,60.0,30.18,WNW,289,3.0,9.0,58,0.00,,,0.00,,2013-05-31 22:42:00,
2013-05-31 18:52:00,76.0,60.0,30.18,WNW,289,3.0,9.0,58,0.00,,,0.00,,2013-05-31 22:52:00,
2013-05-31 19:02:00,75.0,61.0,30.18,West,277,2.0,7.0,61,0.00,,,0.00,,2013-05-31 23:02:00,
2013-05-31 19:12:00,75.0,61.0,30.18,West,277,2.0,7.0,61,0.00,,,0.00,,2013-05-31 23:12:00,
2013-05-31 19:21:00,75.0,61.0,30.18,West,271,2.0,7.0,61,0.00,,,0.00,,2013-05-31 23:21:00,
2013-05-31 19:32:00,74.0,61.0,30.18,West,267,3.0,9.0,63,0.00,,,0.00,,2013-05-31 23:32:00,
2013-05-31 19:42:00,73.0,61.0,30.18,WNW,298,2.0,6.0,65,0.00,,,0.00,,2013-05-31 23:42:00,
2013-05-31 19:52:00,73.0,61.0,30.18,WNW,298,2.0,6.0,65,0.00,,,0.00,,2013-05-31 23:52:00,
2013-05-31 20:01:00,73.0,61.0,30.19,SW,235,2.0,7.0,65,0.00,,,0.00,,2013-06-01 00:01:00,
2013-05-31 20:12:00,71.0,59.0,30.19,West,262,2.0,7.0,66,0.00,,,0.00,,2013-06-01 00:12:00,
2013-05-31 20:22:00,71.0,59.0,30.19,West,262,2.0,7.0,66,0.00,,,0.00,,2013-06-01 00:22:00,
2013-05-31 20:32:00,69.0,59.0,30.19,WSW,246,1.0,5.0,70,0.00,,,0.00,,2013-06-01 00:32:00,
2013-05-31 20:42:00,68.0,58.0,30.18,WSW,245,1.0,7.0,71,0.00,,,0.00,,2013-06-01 00:42:00,
2013-05-31 20:52:00,68.0,58.0,30.18,WSW,245,1.0,7.0,71,0.00,,,0.00,,2013-06-01 00:52:00,
2013-05-31 21:02:00,67.0,58.0,30.18,WSW,252,4.0,11.0,72,0.00,,,0.00,,2013-06-01 01:02:00,
2013-05-31 21:11:00,67.0,58.0,30.18,SW,224,4.0,10.0,72,0.00,,,0.00,,2013-06-01 01:11:00,
2013-05-31 21:22:00,67.0,58.0,30.18,SW,224,4.0,10.0,72,0.00,,,0.00,,2013-06-01 01:22:00,
2013-05-31 21:32:00,67.0,58.0,30.19,SW,234,3.0,10.0,73,0.00,,,0.00,,2013-06-01 01:32:00,
2013-05-31 21:42:00,67.0,58.0,30.19,WSW,241,3.0,9.0,74,0.00,,,0.00,,2013-06-01 01:42:00,
2013-05-31 21:52:00,67.0,58.0,30.19,WSW,241,3.0,9.0,74,0.00,,,0.00,,2013-06-01 01:52:00,
2013-05-31 22:02:00,67.0,58.0,30.19,SW,216,3.0,9.0,74,0.00,,,0.00,,2013-06-01 02:02:00,
2013-05-31 22:12:00,67.0,58.0,30.19,SW,216,3.0,9.0,74,0.00,,,0.00,,2013-06-01 02:12:00,
2013-05-31 22:21:00,67.0,58.0,30.19,SW,216,3.0,9.0,74,0.00,,,0.00,,2013-06-01 02:21:00,
2013-05-31 22:32:00,66.0,58.0,30.20,WSW,237,3.0,8.0,75,0.00,,,0.00,,2013-06-01 02:32:00,
2013-05-31 22:42:00,66.0,58.0,30.20,WSW,237,3.0,8.0,75,0.00,,,0.00,,2013-06-01 02:42:00,
2013-05-31 22:52:00,66.0,58.0,30.20,WSW,237,3.0,8.0,75,0.00,,,0.00,,2013-06-01 02:52:00,
2013-05-31 23:02:00,66.0,58.0,30.20,SW,234,3.0,9.0,76,0.00,,,0.00,,2013-06-01 03:02:00,
2013-05-31 23:11:00,66.0,58.0,30.20,SW,218,2.0,7.0,76,0.00,,,0.00,,2013-06-01 03:11:00,
2013-05-31 23:21:00,66.0,58.0,30.20,SW,218,2.0,7.0,76,0.00,,,0.00,,2013-06-01 03:21:00,
2013-05-31 23:33:00,66.0,58.0,30.19,WSW,237,3.0,10.0,75,0.00,,,0.00,,2013-06-01 03:33:00,
2013-05-31 23:43:00,66.0,58.0,30.19,WSW,245,3.0,12.0,75,0.00,,,0.00,,2013-06-01 03:43:00,
2013-05-31 23:53:00,66.0,58.0,30.19,WSW,245,3.0,12.0,75,0.00,,,0.00,,2013-06-01 03:53:00,